Home > Weather > Chattanooga > Past weeks

Flag for USA Past Weather in Chattanooga, Tennessee, USA — Yesterday and Last 2 Weeks

Now
98 °F

Scattered clouds.


Feels Like: 101 °F
Forecast: 74 / 96 °F
Wind: 5 mph from North

Location: Lovell Field

Current Time: Jun 25, 2016 at 5:21:46 PM

Latest Report: Jun 25, 2016 at 4:53 PM


Visibility: 10 mi

Pressure: 30.02 "Hg

Humidity: 33%

Dew Point: 64 °F

Location of ChattanoogaLocation

Past Weather in Chattanooga — Graph

°F

Chattanooga Temperature Yesterday

Maximum temperature yesterday: 94 °F (at 4:53 PM)
Minimum temperature yesterday: 70 °F (at 6:53 AM)
Average temperature yesterday: 82 °F

High & Low Weather Summary for the Past Weeks

 TemperatureHumidityPressure
High97 °F (Jun 25, 3:53 PM)94% (Jun 14, 1:53 AM)30.34 "Hg (Jun 14, 1:53 AM)
Low63 °F (Jun 20, 5:53 AM)21% (Jun 10, 5:53 PM)29.78 "Hg (Jun 17, 3:53 PM)
Average82 °F58%30.02 "Hg
* Reported Jun 10 3:53 PM — Jun 25 3:53 PM, Chattanooga, Weather by CustomWeather, © 2016

Note: Actual official high and low records may vary slightly from our data, if they occured in-between our weather recording intervals... More about our weather records

Advertising

Chattanooga Weather History for the Previous 24 Hours

Scroll right to see more
 ConditionsComfort  
Time TempWeatherWind HumidityBarometerVisibility
3:53 PM
Sat, Jun 25
97 °FBroken clouds.7 mph35%30.03 "Hg10 mi
2:53 PM94 °FBroken clouds.9 mph40%30.04 "Hg10 mi
1:53 PM93 °FBroken clouds.5 mph46%30.06 "Hg10 mi
12:53 PM91 °FBroken clouds.5 mph49%30.09 "Hg10 mi
11:53 AM89 °FBroken clouds.6 mph50%30.10 "Hg10 mi
10:53 AM86 °FBroken clouds.No wind55%30.11 "Hg10 mi
9:53 AM83 °FBroken clouds.5 mph63%30.11 "Hg10 mi
8:53 AM80 °FBroken clouds.3 mph71%30.10 "Hg10 mi
7:53 AM77 °FBroken clouds.No wind82%30.08 "Hg9 mi
6:53 AM74 °FPassing clouds.No wind88%30.07 "Hg8 mi
5:53 AM74 °FPassing clouds.No wind91%30.05 "Hg9 mi
4:53 AM75 °FClear.No wind88%30.04 "Hg10 mi
3:53 AM76 °FClear.3 mph85%30.03 "Hg10 mi
2:53 AM77 °FClear.No wind82%30.03 "Hg10 mi
1:53 AM78 °FClear.5 mph79%30.03 "Hg10 mi
12:53 AM79 °FPassing clouds.No wind79%30.03 "Hg10 mi
11:53 PM
Fri, Jun 24
80 °FPartly cloudy.3 mph76%30.03 "Hg10 mi
10:53 PM82 °FPartly cloudy.3 mph72%30.02 "Hg10 mi
9:53 PM84 °FPartly sunny.6 mph63%30.01 "Hg10 mi
8:53 PM87 °FBroken clouds.5 mph55%30.00 "Hg10 mi
7:53 PM89 °FBroken clouds.7 mph52%30.00 "Hg10 mi
6:53 PM91 °FBroken clouds.8 mph47%29.98 "Hg10 mi
5:53 PM93 °FScattered clouds.7 mph42%30.00 "Hg10 mi
Weather by CustomWeather, © 2016

See weather overviewHow to use our weather pages